Regional Weather Roundup
Issued by NWS

Home | Current Version | Previous Version | Graphics & Text | Print | Product List | Glossary On
Versions: 1 2 3 4 5 6 7 8 9 10 11 12 13 14 15 16 17 18 19 20 21 22 23 24 25 26 27 28 29 30 31 32 33 34 35 36 37 38 39 40 41 42 43 44 45 46 47 48 49 50
000
ASUS45 KCYS 271610
RWRWY

WYOMING REGIONAL WEATHER ROUNDUP
NATIONAL WEATHER SERVICE CHEYENNE WY
1000 AM MDT MON APR 27 2015

NOTE:  "FAIR" INDICATES FEW OR NO CLOUDS BELOW 12,000 FEET
WITH NO SIGNIFICANT WEATHER AND/OR OBSTRUCTIONS TO VISIBILITY.

WYZ001-271700-
YELLOWSTONE NATIONAL PARK

CITY           SKY/WX    TMP DP  RH WIND       PRES   REMARKS
LK YELLOWSTONE   N/A     32  25  75 VRB3      30.33R
W YELLOWSTONE  NOT AVBL

$$
WYZ002>013-054>058-071-098>099-271700-
NORTHERN WYOMING

CITY           SKY/WX    TMP DP  RH WIND       PRES   REMARKS
JACKSON        SUNNY     41  30  65 VRB5      30.29R
CODY           CLOUDY    39  32  75 NE5       30.34S
GREYBULL       CLOUDY    41  35  79 CALM      30.35S
WORLAND        CLOUDY    40  34  79 VRB5      30.35R
SHERIDAN       CLOUDY    41  35  79 VRB3      30.35S
BUFFALO        CLOUDY    40  34  79 N5        30.34R
GILLETTE       CLOUDY    37  34  89 N9        30.34S WCI  30
HULETT         MIX PCPN  36  34  93 NW6       30.35R WCI  31
NEWCASTLE      LGT RAIN  39  39 100 NW8       30.30S WCI  34

$$
WYZ014>020-022>026-101>103-271700-
CENTRAL WYOMING

CITY           SKY/WX    TMP DP  RH WIND       PRES   REMARKS
BIG PINEY      CLOUDY    42  31  64 S6        30.28R
PINEDALE       CLOUDY    37  36  93 CALM      30.29R
DUBOIS         CLOUDY    36  32  87 SE9       30.29S WCI  29
LANDER         CLOUDY    38  35  89 NE3       30.32R
RIVERTON       CLOUDY    39  33  79 CALM      30.33S
CASPER         CLOUDY    36  33  89 N8        30.32S WCI  30
DOUGLAS        LGT RAIN  37  36  96 NW9       30.32R WCI  30

$$
WYZ021-027>030-104>119-271700-
SOUTHERN WYOMING

CITY           SKY/WX    TMP DP  RH WIND       PRES   REMARKS
EVANSTON       CLOUDY    37  33  85 N9        30.28R WCI  30
KEMMERER       CLOUDY    39  34  81 SE3       30.28R
FORT BRIDGER   CLOUDY    39  39 100 CALM      30.30S
ROCK SPRINGS   CLOUDY    38  33  82 NE12      30.28R WCI  30
DIXON          FAIR      46  37  71 CALM      30.23S
RAWLINS        CLOUDY    41  34  76 NE13      30.25R
SARATOGA       CLOUDY    41  34  75 CALM      30.24S
LARAMIE        CLOUDY    38  32  79 N3        30.25R
CHEYENNE       CLOUDY    37  35  92 N3        30.27R FOG
TORRINGTON     CLOUDY    47  41  80 CALM      30.27R
PINE BLUFFS    DRZL/FOG  39  37  93 E5        30.28R VSB 1

$$


USA.gov is the U.S. government's official web portal to all federal, state and local government web resources and services.